Change the Weather History Date:

Thursday, April 11, 2013

  Actual Average Record
Temperature  
Mean Temperature 56 °F 50 °F  
Max Temperature 65 °F 60 °F 86 °F (2011)
Min Temperature 47 °F 40 °F 23 °F (1909)
Degree Days  
Heating Degree Days 9 15  
Month to date heating degree days 159 187  
Since 1 July heating degree days 4545 4733  
Cooling Degree Days 0 0  
Month to date cooling degree days 14 0  
Year to date cooling degree days 14 0  
Growing Degree Days 6 (Base 50)    
Moisture  
Dew Point 52 °F    
Average Humidity 81    
Maximum Humidity 97    
Minimum Humidity 64    
Precipitation  
Precipitation 0.01 in 0.13 in 0.87 in (1919)
Month to date precipitation 0.66 1.46  
Year to date precipitation 7.87 11.07  
Sea Level Pressure  
Sea Level Pressure 29.90 in    
Wind  
Wind Speed 9 mph (East)    
Max Wind Speed 20 mph    
Max Gust Speed 23 mph    
Visibility 8 miles    
Events Rain    
T = Trace of Precipitation, MM = Missing Value Source: NWS Daily Summary

Daily Weather History Graph

Daily Weather History Graph

Search for Another Location

Airport or City:

Trip Planner

Search our weather history database for the weather conditions in past years. The results will help you decide how hot, cold, wet, or windy it might be!

Date:

Astronomy

Apr. 11, 2013 Rise Set
Actual Time 6:26 AM EDT 7:34 PM EDT
Civil Twilight 5:58 AM EDT 8:02 PM EDT
Nautical Twilight 5:25 AM EDT 8:35 PM EDT
Astronomical Twilight 4:50 AM EDT 9:10 PM EDT
Moon 6:56 AM EDT (4/11) 9:06 PM EDT (4/11)
Length of Visible Light 14h 03m
Length of Day
13h 07m
New Moon, 2% of the Moon is Illuminated
Apr 11
New Moon
Apr 18
First Quarter
Apr 25
Full
May 2
Last Quarter
May 9
New

Hourly Weather History & Observations

Time (EDT) Temp. Dew Point Humidity Pressure Visibility Wind Dir Wind Speed Gust Speed Precip Events Conditions
12:53 AM 61.0 °F 60.1 °F 97% 29.85 in 5.0 mi SSW 4.6 mph - 0.02 in Rain Light Rain
1:53 AM 61.0 °F 60.1 °F 97% 29.83 in 7.0 mi Calm Calm - 0.00 in   Mostly Cloudy
2:33 AM 60.8 °F 59.0 °F 94% 29.79 in 3.0 mi SW 3.5 mph - N/A   Partly Cloudy
2:53 AM 61.0 °F 59.0 °F 93% 29.76 in 6.0 mi WSW 4.6 mph - N/A   Mostly Cloudy
3:53 AM 61.0 °F 59.0 °F 93% 29.79 in 7.0 mi Calm Calm - N/A   Clear
4:53 AM 61.0 °F 59.0 °F 93% 29.83 in 7.0 mi Calm Calm - N/A   Clear
5:53 AM 60.1 °F 57.9 °F 93% 29.85 in 7.0 mi North 3.5 mph - 0.01 in   Clear
6:53 AM 60.1 °F 59.0 °F 96% 29.87 in 6.0 mi Calm Calm - N/A   Mostly Cloudy
7:15 AM 60.8 °F 57.2 °F 88% 29.89 in 2.0 mi Calm Calm - N/A   Partly Cloudy
7:25 AM 62.6 °F 59.0 °F 88% 29.89 in 6.0 mi North 3.5 mph - N/A   Clear
7:48 AM 62.6 °F 59.0 °F 88% 29.90 in 9.0 mi NNE 5.8 mph - N/A   Mostly Cloudy
7:53 AM 62.1 °F 59.0 °F 90% 29.88 in 10.0 mi NNE 4.6 mph - N/A   Mostly Cloudy
8:50 AM 62.6 °F 57.2 °F 82% 29.89 in 10.0 mi NE 6.9 mph - N/A   Mostly Cloudy
8:53 AM 62.1 °F 57.0 °F 84% 29.88 in 10.0 mi ENE 6.9 mph - N/A   Mostly Cloudy
9:21 AM 62.6 °F 53.6 °F 72% 29.89 in 10.0 mi NE 5.8 mph - N/A   Scattered Clouds
9:53 AM 64.0 °F 55.0 °F 73% 29.89 in 10.0 mi NE 9.2 mph - N/A   Mostly Cloudy
10:46 AM 60.8 °F 55.4 °F 82% 29.93 in 5.0 mi East 11.5 mph - N/A   Haze
10:53 AM 60.1 °F 55.0 °F 83% 29.91 in 5.0 mi East 11.5 mph - N/A   Haze
11:53 AM 57.9 °F 52.0 °F 81% 29.93 in 8.0 mi East 11.5 mph - N/A   Overcast
12:23 PM 57.2 °F 50.0 °F 77% 29.94 in 10.0 mi ESE 10.4 mph - N/A   Overcast
1:53 PM 60.1 °F 48.9 °F 67% 29.92 in 10.0 mi East 11.5 mph - N/A   Overcast
2:53 PM 61.0 °F 50.0 °F 67% 29.90 in 10.0 mi East 12.7 mph 19.6 mph N/A   Overcast
3:53 PM 59.0 °F 50.0 °F 72% 29.90 in 10.0 mi East 9.2 mph 18.4 mph N/A   Overcast
4:53 PM 59.0 °F 48.9 °F 69% 29.91 in 10.0 mi SE 12.7 mph - N/A   Overcast
5:53 PM 57.0 °F 46.9 °F 69% 29.91 in 10.0 mi SE 17.3 mph 23.0 mph N/A   Overcast
6:53 PM 53.1 °F 46.0 °F 77% 29.93 in 10.0 mi SE 12.7 mph - N/A   Overcast
7:02 PM 53.6 °F 46.4 °F 77% 29.95 in 10.0 mi ESE 10.4 mph - N/A   Overcast
7:53 PM 51.1 °F 44.1 °F 77% 29.94 in 10.0 mi SE 12.7 mph - N/A   Overcast
8:20 PM 50.0 °F 44.6 °F 82% 29.95 in 10.0 mi SE 12.7 mph 21.9 mph N/A   Overcast
8:53 PM 48.9 °F 43.0 °F 80% 29.95 in 10.0 mi ESE 13.8 mph - N/A   Overcast
9:53 PM 48.9 °F 43.0 °F 80% 29.96 in 10.0 mi East 10.4 mph 19.6 mph N/A   Overcast
10:29 PM 48.2 °F 42.8 °F 82% 29.98 in 10.0 mi East 16.1 mph 20.7 mph N/A   Overcast
10:53 PM 48.0 °F 42.1 °F 80% 29.96 in 10.0 mi East 11.5 mph 19.6 mph N/A   Overcast
11:41 PM 48.2 °F 41.0 °F 76% 29.96 in 10.0 mi East 13.8 mph 21.9 mph N/A   Overcast
11:53 PM 46.9 °F 41.0 °F 80% 29.94 in 10.0 mi East 16.1 mph 23.0 mph N/A   Overcast